[[{"header":{"parameterUnit":"m.s-1","parameterCategory":1,"la1":30.2991,"la2":30.254,"lo1":-89.0895,"lo2":-89.0444,"dy":0.0017,"dx":0.0017,"nx":28,"ny":28,"refTime":"2024-06-03T09:00:00:Z","depth":0,"parameterNumber":2,"parameterNumberName":"U-component_of_WINDS"},"data":[0,0,0,0,0,0,0,0,0,0,0,0,0,0,0,0,0,0,0,0,0,0,0,0,0,0,0,0,0,0,0,0,0,0,0,0,0,0,0,0,0,0,0,0,0,0,0,0,0,0,0,0,0,0,0,0,0,0,0.055,0.0549,0,0.0432,0.0431,0.0429,0.0369,0.0369,0.0369,0.0369,0.0245,0.0242,0.0238,0,0,0,0,0,0,0,0,0,0,0,0,0,0.0718,0.0715,0.055,0.0549,0.0547,0.0432,0.0431,0.0429,0.0369,0.0369,0.0369,0.0369,0.0246,0.0242,0.0238,0,0,0,0,0,0,0,0,0,0,0,0,0,0.0627,0.0714,0.055,0.0504,0.0498,0.0433,0.0431,0.0429,0.0369,0.0369,0.0369,0.0369,0.0247,0.0242,0.0238,0.0209,0,0,0.0223,0.022,0,0,0,0,0,0,0,0,0.0632,0.0621,0.0512,0.0507,0.0501,0.0415,0.0444,0.0355,0.0369,0.0418,0.0369,0.0369,0.0301,0.0292,0.027,0.0203,0.0197,0.0222,0.0219,0.0217,0.0216,0,0,0,0,0,0,0,0.0639,0.0625,0.0503,0.051,0.0503,0.0487,0.0474,0.0427,0.0361,0.0414,0.0409,0.0396,0.0298,0.0275,0.0267,0.0196,0.0222,0.0218,0.0215,0.0213,0.0094,0.0094,0,0,0,0,0,0,0.0653,0.0631,0.0507,0.05,0.0568,0.0484,0.0469,0.0443,0.0362,0.0349,0.0396,0.0394,0.0283,0.0272,0.0262,0.022,0.0217,0.0212,0.021,0.0095,0.0094,0.0094,0,0,0,0,0,0,0.0657,0.0643,0.0512,0.0564,0.0546,0.0481,0.0452,0.0441,0.0417,0.0349,0.0336,0.0385,0.0283,0.0269,0.0222,0.0215,0.021,0.0206,0.0095,0.0095,0.0094,0.0138,0,0,0,0,0,0,0.0662,0.0644,0.0634,0.0564,0.0544,0.0476,0.0451,0.0438,0.0409,0.0405,0.0335,0.0323,0.0282,0.0229,0.0217,0.0208,0.0202,0.0095,0.0095,0.0094,0.0137,0.0139,0.0141,0,0,0,0,0,0.0668,0.0651,0.0634,0.0619,0.053,0.0475,0.0463,0.0417,0.0409,0.0397,0.0352,0.0325,0.0218,0.0225,0.021,0.02,0.0095,0.0095,0.0094,0.0136,0.0139,0.0141,0,0,0,0,0,0,0.0721,0.0641,0.0621,0.0582,0.0536,0.0465,0.0449,0.0422,0.0377,0.0374,0.0318,0.0303,0.026,0.0225,0.0235,0.0166,0.0154,0.015,0.019,0.0192,0.0195,0.0203,0.0198,0,0,0,0,0,0.0729,0.0693,0.0624,0.0595,0.0573,0.0515,0.049,0.0458,0.0408,0.0388,0.034,0.0291,0.0246,0.0217,0.0172,0.0132,0.0114,0.0117,0.012,0.0122,0.0119,0.0092,0.0092,0.0093,0.0093,0.0093,0,0,0.0743,0.0695,0.0675,0.0605,0.0565,0.0527,0.0499,0.0461,0.0431,0.0381,0.0334,0.0297,0.0238,0.0193,0.0171,0.0163,0.0115,0.0121,0.0123,0.0119,0.0091,0.0091,0.0091,0.0092,0.0092,0.0093,0,0,0.0749,0.071,0.0681,0.0642,0.0583,0.0544,0.0537,0.0469,0.0443,0.0394,0.0356,0.0318,0.0243,0.0202,0.0171,0.0159,0.0131,0.0145,0.0157,0.0131,0.0131,0.013,0.0124,0.0122,0.0143,0.0143,0.0143,0,0.0774,0.0717,0.0669,0.0632,0.06,0.0554,0.0522,0.0486,0.0415,0.0394,0.0386,0.0288,0.0246,0.0189,0.0186,0.0163,0.0151,0.0153,0.0135,0.0134,0.0133,0.0126,0.0124,0.0145,0.0145,0.0145,0.0145,0,0.0749,0.0709,0.0692,0.0625,0.0592,0.0558,0.0502,0.0474,0.0445,0.0406,0.0355,0.0302,0.0244,0.0228,0.02,0.0167,0.0163,0.0146,0.0132,0.0136,0.0128,0.0125,0.0148,0.0148,0.0147,0.0146,0,0,0.0786,0.0691,0.0686,0.0653,0.0584,0.0551,0.0513,0.0457,0.0433,0.0385,0.035,0.0286,0.0269,0.0234,0.0199,0.0177,0.0167,0.0162,0.0159,0.0163,0.0125,0.0137,0.0135,0.0148,0.0148,0.0147,0.0129,0,0.0781,0.0713,0.0667,0.0616,0.0577,0.0532,0.0498,0.045,0.0413,0.0372,0.033,0.0284,0.0266,0.0244,0.022,0.0174,0.0158,0.0175,0.0113,0.0112,0.0128,0.0131,0.0145,0.013,0.0126,0.0125,0.0125,0,0.0766,0.0719,0.0665,0.0597,0.0578,0.055,0.0493,0.0456,0.04,0.0373,0.0333,0.0298,0.0253,0.0244,0.018,0.0192,0.0164,0.0137,0.0135,0.0127,0.0118,0.0121,0.0125,0.0122,0.012,0.012,0.0121,0,0.0796,0.0719,0.0676,0.065,0.057,0.055,0.0516,0.046,0.0428,0.0378,0.0356,0.0302,0.0271,0.0229,0.0178,0.0176,0.0119,0.0106,0.0093,0.0095,0.0083,0.0084,0.008,0.0067,0.0067,0.0067,0.0068,0,0.0794,0.0762,0.0688,0.0661,0.0623,0.057,0.0532,0.0493,0.0443,0.0406,0.0363,0.0329,0.0265,0.0223,0.0183,0.0134,0.0122,0.0097,0.0087,0.01,0.0103,0.008,0.0079,0.0067,0.0067,0.0067,0.0067,0,0.0821,0.0771,0.072,0.0648,0.0629,0.0604,0.0541,0.0512,0.0471,0.0424,0.041,0.0346,0.0293,0.0238,0.0167,0.014,0.0092,0.0079,0.0112,0.0105,0.0095,0.0096,0.0076,0.0069,0.0063,0.0063,0.0063,0,0.0823,0.0797,0.0722,0.0695,0.0661,0.0618,0.0585,0.0531,0.0498,0.0431,0.0409,0.0353,0.0305,0.0222,0.0168,0.0112,0.0096,0.0092,0.0087,0.01,0.0093,0.0094,0.009,0.0094,0.0094,0.0095,0.0095,0,0.0831,0.0806,0.0762,0.0707,0.0669,0.0624,0.0576,0.0556,0.0492,0.0457,0.0402,0.0365,0.0292,0.0235,0.0173,0.0135,0.0103,0.0097,0.009,0.0103,0.0123,0.011,0.0115,0.0097,0.0097,0.0097,0.0097,0.0097,0.0843,0.0817,0.076,0.071,0.0669,0.0625,0.0593,0.0548,0.0502,0.0439,0.0409,0.0354,0.0295,0.0208,0.017,0.0124,0.0116,0.0107,0.0105,0.0103,0.0105,0.0131,0.0113,0.0113,0.0113,0.0112,0.0112,0,0.0847,0.0807,0.0763,0.0697,0.0658,0.0633,0.0578,0.0546,0.0498,0.0447,0.04,0.0336,0.0281,0.0222,0.0162,0.0137,0.012,0.0123,0.0123,0.0114,0.0118,0.0128,0.0137,0.0137,0.0137,0.0137,0.0137,0.0137,0.0844,0.0797,0.0766,0.0697,0.0657,0.0603,0.0574,0.0532,0.049,0.0421,0.0375,0.0337,0.0281,0.0217,0.0164,0.0148,0.0127,0.0133,0.0113,0.0116,0.0115,0.0113,0.0122,0.013,0.013,0.0113,0.0112,0.0112]},{"header":{"parameterUnit":"m.s-1","parameterCategory":1,"la1":30.2991,"la2":30.254,"lo1":-89.0895,"lo2":-89.0444,"dy":0.0017,"dx":0.0017,"nx":28,"ny":28,"refTime":"2024-06-03T09:00:00:Z","depth":0,"parameterNumber":3,"parameterNumberName":"V-component_of_WINDS"},"data":[0,0,0,0,0,0,0,0,0,0,0,0,0,0,0,0,0,0,0,0,0,0,0,0,0,0,0,0,0,0,0,0,0,0,0,0,0,0,0,0,0,0,0,0,0,0,0,0,0,0,0,0,0,0,0,0,0,0,5.1914,5.1914,0,5.1989,5.199,5.1991,5.1953,5.1951,5.1949,5.1947,5.2019,5.2023,5.2027,0,0,0,0,0,0,0,0,0,0,0,0,0,5.173,5.1734,5.1913,5.1914,5.1915,5.1989,5.199,5.1991,5.1953,5.1951,5.1948,5.1946,5.2018,5.2022,5.2027,0,0,0,0,0,0,0,0,0,0,0,0,0,5.1808,5.1735,5.1913,5.1906,5.1906,5.1989,5.199,5.1991,5.1954,5.1951,5.1948,5.1945,5.2016,5.2022,5.2027,5.2121,0,0,5.2045,5.2047,0,0,0,0,0,0,0,0,5.1804,5.1815,5.1906,5.1906,5.1906,5.1959,5.1952,5.2035,5.1954,5.1935,5.1947,5.1944,5.2001,5.2008,5.2028,5.2124,5.2128,5.2045,5.2049,5.2051,5.2053,0,0,0,0,0,0,0,5.1798,5.1811,5.1943,5.1907,5.1908,5.1896,5.1904,5.1967,5.1984,5.1937,5.1934,5.1944,5.2001,5.2023,5.203,5.2129,5.2045,5.205,5.2053,5.2056,5.2303,5.2306,0,0,0,0,0,0,5.1794,5.1807,5.1941,5.1945,5.1847,5.1902,5.1911,5.1945,5.1983,5.1986,5.1946,5.1942,5.2015,5.2023,5.2032,5.2142,5.2051,5.2056,5.2059,5.23,5.2303,5.2307,0,0,0,0,0,0,5.179,5.1806,5.1938,5.1876,5.1891,5.1908,5.1947,5.1948,5.197,5.199,5.1992,5.1967,5.2013,5.2024,5.2099,5.2144,5.2059,5.2064,5.2296,5.2301,5.2305,5.2365,0,0,0,0,0,0,5.1785,5.1805,5.1843,5.1877,5.1895,5.2006,5.195,5.1951,5.1981,5.1975,5.201,5.2012,5.2011,5.2091,5.2105,5.2151,5.2068,5.2292,5.2298,5.2304,5.2359,5.2371,5.2382,0,0,0,0,0,5.1779,5.1856,5.1845,5.1861,5.1942,5.2008,5.2018,5.2017,5.1984,5.2021,5.2033,5.2011,5.2138,5.2099,5.2114,5.2162,5.2289,5.2296,5.2303,5.2354,5.2369,5.2382,0,0,0,0,0,0,5.1825,5.186,5.1848,5.1939,5.1971,5.2002,5.2048,5.2033,5.2074,5.2067,5.2062,5.207,5.2148,5.2163,5.2119,5.2254,5.2208,5.2218,5.2241,5.2256,5.2267,5.2261,5.2073,0,0,0,0,0,5.1846,5.1899,5.1926,5.2003,5.202,5.2031,5.206,5.2056,5.2089,5.2101,5.212,5.215,5.2196,5.2227,5.2271,5.2361,5.2367,5.2402,5.2413,5.2423,5.2431,5.2478,5.2493,5.2331,5.233,5.233,0,0,5.1889,5.1915,5.1948,5.2013,5.2037,5.209,5.2043,5.2101,5.2139,5.211,5.2182,5.2196,5.2229,5.2312,5.2349,5.2327,5.2478,5.2432,5.2439,5.2443,5.2487,5.2502,5.2516,5.2335,5.2335,5.2334,0,0,5.1995,5.2021,5.2087,5.2113,5.2151,5.2158,5.2174,5.2207,5.2215,5.2288,5.2266,5.2311,5.2391,5.2416,5.2438,5.2552,5.2532,5.2566,5.2625,5.2671,5.2684,5.2695,5.2734,5.2748,5.2575,5.2575,5.2576,0,5.2043,5.2123,5.2122,5.2182,5.221,5.2188,5.2253,5.2277,5.2327,5.2346,5.2321,5.242,5.2441,5.2528,5.2556,5.2576,5.2592,5.2562,5.2682,5.2694,5.2704,5.2741,5.2755,5.2579,5.2579,5.2578,5.2578,0,5.218,5.2236,5.2284,5.2334,5.2368,5.243,5.2437,5.247,5.2463,5.2472,5.2545,5.257,5.2617,5.2638,5.2631,5.2724,5.2708,5.2683,5.2636,5.2723,5.2758,5.2772,5.2585,5.2583,5.2582,5.2581,0,0,5.2316,5.2365,5.2383,5.2404,5.2444,5.2486,5.2546,5.2595,5.2622,5.2657,5.2706,5.2774,5.2751,5.2777,5.2772,5.2813,5.2899,5.2782,5.2783,5.2801,5.2999,5.3017,5.3034,5.2887,5.2889,5.2892,5.2996,0,5.2423,5.2531,5.2531,5.2629,5.2679,5.2658,5.271,5.2739,5.2748,5.279,5.28,5.2848,5.2815,5.283,5.2869,5.288,5.2938,5.2873,5.293,5.2932,5.292,5.3052,5.3071,5.3169,5.301,5.3012,5.3014,0,5.2562,5.2603,5.2706,5.2738,5.2758,5.2806,5.2849,5.289,5.2921,5.2925,5.2954,5.2944,5.3002,5.2955,5.3035,5.299,5.3013,5.3022,5.3026,5.303,5.2977,5.3058,5.32,5.3214,5.3035,5.3033,5.3032,0,5.2649,5.2729,5.2801,5.2821,5.2859,5.2893,5.291,5.2939,5.2967,5.3004,5.3022,5.3065,5.3088,5.3121,5.3121,5.3087,5.3201,5.3154,5.3204,5.3204,5.3228,5.3226,5.3374,5.3246,5.3245,5.3245,5.3245,0,5.2768,5.2831,5.2841,5.2885,5.2954,5.2953,5.3021,5.3035,5.3061,5.3106,5.309,5.3131,5.313,5.3172,5.3173,5.3237,5.3248,5.3251,5.325,5.3252,5.3251,5.3266,5.3258,5.3249,5.3248,5.3247,5.3247,0,5.2876,5.2885,5.2962,5.2992,5.3001,5.3051,5.3076,5.3117,5.3125,5.3181,5.3194,5.3207,5.3255,5.3259,5.3315,5.3315,5.3393,5.3385,5.3382,5.3381,5.3429,5.3424,5.3591,5.3611,5.3471,5.3473,5.3474,0,5.295,5.2999,5.3034,5.3064,5.3084,5.3131,5.316,5.3161,5.3191,5.323,5.3265,5.3312,5.335,5.3428,5.344,5.3482,5.3474,5.353,5.348,5.348,5.3473,5.3469,5.3473,5.3539,5.354,5.3542,5.3543,0,5.308,5.3082,5.3126,5.317,5.3206,5.3241,5.3273,5.3298,5.3302,5.3336,5.3386,5.3415,5.3473,5.3518,5.356,5.3575,5.3559,5.3558,5.3572,5.3573,5.3569,5.357,5.3407,5.3554,5.3553,5.3552,5.3552,5.3551,5.3172,5.3214,5.3245,5.3293,5.3318,5.3349,5.3388,5.3402,5.3444,5.3491,5.3488,5.3543,5.3571,5.3625,5.3643,5.3685,5.3666,5.3685,5.369,5.3695,5.3699,5.3564,5.3692,5.3692,5.3692,5.3691,5.3691,0,5.33,5.3319,5.3364,5.341,5.3447,5.3431,5.3466,5.3498,5.3546,5.3575,5.3613,5.3669,5.3713,5.3729,5.3772,5.3802,5.3795,5.3813,5.381,5.3813,5.3714,5.3698,5.3817,5.3817,5.3817,5.3817,5.3817,5.3817,5.337,5.3439,5.3445,5.3524,5.3543,5.3597,5.3618,5.3645,5.3668,5.3732,5.3769,5.378,5.3803,5.3847,5.3886,5.389,5.3905,5.3926,5.3926,5.3833,5.382,5.3808,5.3792,5.393,5.393,5.4021,5.4022,5.4022]}]]